Weather History for VTCC - September, 2013

Change the Weather History Date:

Tuesday, September 24, 2013

  Actual Average Record
Temperature  
Mean Temperature 84 °F -  
Max Temperature 93 °F 85 °F 93 °F (2007)
Min Temperature 75 °F 70 °F 71 °F (2002)
Cooling Degree Days 19    
Growing Degree Days 34 (Base 50)    
Moisture  
Dew Point 71 °F    
Average Humidity 73    
Maximum Humidity 89    
Minimum Humidity 44    
Precipitation  
Precipitation 0.02 in 0.19 in - ()
Sea Level Pressure  
Sea Level Pressure 29.74 in    
Wind  
Wind Speed 4 mph ()    
Max Wind Speed 20 mph    
Max Gust Speed -    
Visibility 6.2 miles    
Events Rain , Thunderstorm    
Averages and records for this station are not official NWS values.
T = Trace of Precipitation, MM = Missing Value Source: Averaged Metar Reports

Daily Weather History Graph

Daily Weather History Graph

Search for Another Location

Airport or City:

Trip Planner

Search our weather history database for the weather conditions in past years. The results will help you decide how hot, cold, wet, or windy it might be!

Date:

Astronomy

Sep. 24, 2013 Rise Set
Actual Time 6:13 AM ICT 6:18 PM ICT
Civil Twilight 5:51 AM ICT 6:40 PM ICT
Nautical Twilight 5:26 AM ICT 7:05 PM ICT
Astronomical Twilight 5:00 AM ICT 7:31 PM ICT
Moon 9:52 PM ICT (9/24) 10:20 AM ICT (9/24)
Length of Visible Light 12h 49m
Length of Day
12h 05m
Waning Gibbous, 77% of the Moon is Illuminated
Sep 24
Waning Gibbous
Sep 27
Last Quarter
Oct 5
New
Oct 12
First Quarter
Oct 19
Full

Hourly Weather History & Observations

Time (ICT) Temp. Heat Index Dew Point Humidity Pressure Visibility Wind Dir Wind Speed Gust Speed Precip Events Conditions
12:00 AM 82.4 °F 87.2 °F 71.6 °F 70% 29.71 in 6.2 mi WSW 9.2 mph - N/A   Scattered Clouds
12:30 AM 82.4 °F 87.2 °F 71.6 °F 70% 29.71 in 6.2 mi SW 5.8 mph - N/A   Scattered Clouds
1:00 AM 83 °F - 74 °F 69% 29.67 in 6 mi Calm Calm - -   Overcast
1:00 AM 82.4 °F 87.2 °F 71.6 °F 70% 29.71 in 6.2 mi SW 5.8 mph - N/A   Scattered Clouds
1:30 AM 82.4 °F 86.3 °F 69.8 °F 66% 29.71 in 6.2 mi WSW 5.8 mph - N/A   Scattered Clouds
2:00 AM 82.4 °F 86.3 °F 69.8 °F 66% 29.71 in 6.2 mi WSW 5.8 mph - N/A   Scattered Clouds
2:30 AM 80.6 °F 84.6 °F 71.6 °F 74% 29.71 in 6.2 mi South 4.6 mph - N/A   Scattered Clouds
3:00 AM 80.6 °F 84.6 °F 71.6 °F 74% 29.71 in 6.2 mi Calm Calm - N/A   Scattered Clouds
3:30 AM 80.6 °F 85.4 °F 73.4 °F 79% 29.71 in 6.2 mi Calm Calm - N/A   Scattered Clouds
4:00 AM 78.8 °F - 73.4 °F 83% 29.71 in 6.2 mi Calm Calm - N/A   Scattered Clouds
4:30 AM 78.8 °F - 73.4 °F 83% 29.71 in 6.2 mi Calm Calm - N/A   Scattered Clouds
5:00 AM 78.8 °F - 73.4 °F 83% 29.71 in 6.2 mi WNW 2.3 mph - N/A   Scattered Clouds
5:30 AM 77.0 °F - 73.4 °F 89% 29.71 in 6.2 mi WNW 2.3 mph - N/A   Scattered Clouds
6:00 AM 77.0 °F - 73.4 °F 89% 29.71 in 6.2 mi South 2.3 mph - N/A   Scattered Clouds
6:30 AM 77.0 °F - 73.4 °F 89% 29.74 in 6.2 mi Calm Calm - N/A   Scattered Clouds
7:00 AM 78 °F - 75 °F 88% 29.69 in 6 mi SW 1.2 mph - -   Scattered Clouds
7:00 AM 77.0 °F - 73.4 °F 89% 29.74 in 6.2 mi WSW 4.6 mph - N/A   Partly Cloudy
7:30 AM 78.8 °F - 73.4 °F 83% 29.74 in 6.2 mi WSW 4.6 mph - N/A   Partly Cloudy
8:00 AM 80.6 °F 84.6 °F 71.6 °F 74% 29.77 in 6.2 mi SSW 8.1 mph - N/A   Scattered Clouds
8:30 AM 80.6 °F 83.9 °F 69.8 °F 70% 29.80 in 6.2 mi SSW 9.2 mph - N/A   Scattered Clouds
9:00 AM 80.6 °F 84.6 °F 71.6 °F 74% 29.80 in 6.2 mi SSW 8.1 mph - N/A   Scattered Clouds
9:30 AM 82.4 °F 87.2 °F 71.6 °F 70% 29.80 in 6.2 mi South 6.9 mph - N/A   Scattered Clouds
10:00 AM 82.4 °F 87.2 °F 71.6 °F 70% 29.80 in 6.2 mi South 5.8 mph - N/A   Scattered Clouds
10:30 AM 86.0 °F 90.4 °F 69.8 °F 58% 29.80 in 6.2 mi WSW 3.5 mph - N/A   Scattered Clouds
11:00 AM 86.0 °F 90.4 °F 69.8 °F 58% 29.80 in 6.2 mi SW 3.5 mph - N/A   Partly Cloudy
11:30 AM 87.8 °F 92.6 °F 69.8 °F 55% 29.80 in 6.2 mi WSW 5.8 mph - N/A   Partly Cloudy
12:00 PM 87.8 °F 92.6 °F 69.8 °F 55% 29.77 in 6.2 mi SW 4.6 mph - N/A   Partly Cloudy
12:30 PM 89.6 °F 94.7 °F 69.8 °F 52% 29.74 in 6.2 mi SSW 3.5 mph - N/A   Partly Cloudy
1:00 PM 92 °F - 73 °F 46% 29.65 in 6 mi NW 2.3 mph - -   Scattered Clouds
1:00 PM 91.4 °F 96.8 °F 69.8 °F 49% 29.71 in 6.2 mi WSW 3.5 mph - N/A   Partly Cloudy
1:30 PM 91.4 °F 96.8 °F 69.8 °F 49% 29.71 in 6.2 mi South 5.8 mph - N/A   Partly Cloudy
2:00 PM 91.4 °F 96.8 °F 69.8 °F 49% 29.68 in 6.2 mi East 3.5 mph - N/A   Partly Cloudy
2:30 PM 93.2 °F 97.7 °F 68.0 °F 44% 29.68 in 6.2 mi SSE 3.5 mph - N/A   Scattered Clouds
3:00 PM 80.6 °F 83.2 °F 68.0 °F 65% 29.71 in 6.2 mi North 19.6 mph - N/A Rain , Thunderstorm Light Thunderstorms and Rain
3:30 PM 78.8 °F - 68.0 °F 69% 29.74 in 6.2 mi NNE 15.0 mph - N/A Rain Light Rain
4:00 PM 80.6 °F 82.7 °F 66.2 °F 61% 29.71 in 6.2 mi NNE 15.0 mph - N/A Rain Light Rain
4:30 PM 77.0 °F - 68.0 °F 74% 29.74 in 6.2 mi NW 10.4 mph - N/A   Mostly Cloudy
5:00 PM 77.0 °F - 68.0 °F 74% 29.71 in 6.2 mi NNE 2.3 mph - N/A   Scattered Clouds
5:30 PM 77.0 °F - 69.8 °F 78% 29.74 in 6.2 mi South 6.9 mph - N/A   Scattered Clouds
6:00 PM 75.2 °F - 69.8 °F 83% 29.74 in 6.2 mi West 4.6 mph - N/A Rain Light Rain
6:30 PM 77.0 °F - 71.6 °F 83% 29.74 in 6.2 mi South 3.5 mph - N/A   Scattered Clouds
7:00 PM 78 °F - 73 °F 81% 29.69 in 6 mi SSW 2.3 mph - - Rain Light Rain
7:00 PM 77.0 °F - 71.6 °F 83% 29.74 in 6.2 mi South 3.5 mph - N/A   Scattered Clouds
7:30 PM 75.2 °F - 71.6 °F 89% 29.77 in 6.2 mi WSW 3.5 mph - N/A   Scattered Clouds
8:00 PM 75.2 °F - 71.6 °F 89% 29.77 in 6.2 mi WNW 1.2 mph - N/A   Scattered Clouds
8:30 PM 75.2 °F - 71.6 °F 89% 29.80 in 6.2 mi NNE 2.3 mph - N/A   Scattered Clouds
9:00 PM 77.0 °F - 71.6 °F 83% 29.80 in 6.2 mi East 2.3 mph - N/A   Scattered Clouds
9:30 PM 77.0 °F - 71.6 °F 83% 29.83 in 6.2 mi ENE 2.3 mph - N/A   Scattered Clouds
10:00 PM 77.0 °F - 71.6 °F 83% 29.83 in 6.2 mi WNW 1.2 mph - N/A   Scattered Clouds
10:30 PM 77.0 °F - 71.6 °F 83% 29.83 in 6.2 mi North 1.2 mph - N/A   Scattered Clouds
11:00 PM 75.2 °F - 71.6 °F 89% 29.83 in 6.2 mi WNW 4.6 mph - N/A   Scattered Clouds
11:30 PM 75.2 °F - 71.6 °F 89% 29.83 in 6.2 mi NNE 1.2 mph - N/A Rain Light Rain